Monte Cimone, Italy

5:54 AM CET on February 24, 2018 (GMT +0100)
Monte Cimone

Weather History for LIVC - August, 2013

Change the Weather History Date:

Tuesday, August 20, 2013

  Actual Average Record
Temperature  
Mean Temperature 48 °F -  
Max Temperature 54 °F 52 °F 68 °F (2011)
Min Temperature 41 °F 43 °F 32 °F (1996)
Degree Days  
Heating Degree Days 18    
Moisture  
Dew Point 42 °F    
Average Humidity 88    
Maximum Humidity 100    
Minimum Humidity 72    
Precipitation  
Precipitation 0.12 in 0.10 in - ()
Sea Level Pressure  
Sea Level Pressure 30.21 in    
Wind  
Wind Speed 31 mph ()    
Max Wind Speed 55 mph    
Max Gust Speed -    
Visibility 1.1 miles    
Events Fog , Rain    
Averages and records for this station are not official NWS values.
T = Trace of Precipitation, MM = Missing Value Source: Averaged Metar Reports

Daily Weather History Graph

Daily Weather History Graph

Search for Another Location

Airport or City:

Trip Planner

Search our weather history database for the weather conditions in past years. The results will help you decide how hot, cold, wet, or windy it might be!

Date:

Astronomy

Aug. 20, 2013 Rise Set
Actual Time 6:26 AM CEST 8:13 PM CEST
Civil Twilight 5:55 AM CEST 8:44 PM CEST
Nautical Twilight 5:17 AM CEST 9:22 PM CEST
Astronomical Twilight 4:36 AM CEST 10:02 PM CEST
Moon 7:32 PM CEST (8/20) 5:36 AM CEST (8/20)
Length of Visible Light 14h 49m
Length of Day
13h 47m
Waxing Gibbous, 99% of the Moon is Illuminated
Aug 20
Waxing Gibbous
Aug 21
Full
Aug 28
Last Quarter
Sep 5
New
Sep 12
First Quarter

Hourly Weather History & Observations

Time (CEST) Temp. Windchill Dew Point Humidity Pressure Visibility Wind Dir Wind Speed Gust Speed Precip Events Conditions
12:55 AM 53.6 °F - 48.2 °F 82% 30.27 in 6.2 mi WSW 23.0 mph - N/A   Mostly Cloudy
1:55 AM 53.6 °F - 48.2 °F 82% 30.24 in 6.2 mi WSW 20.7 mph - N/A   Mostly Cloudy
2:00 AM 54 °F - 48 °F 72%  in 12 mi WSW 20.7 mph - -   Mostly Cloudy
2:55 AM 50.0 °F - 48.2 °F 94% 30.21 in 6.2 mi WSW 25.3 mph - N/A Rain Rain
3:55 AM 46.4 °F 38.3 °F 46.4 °F 100% 30.21 in 0.0 mi WSW 23.0 mph - N/A Fog , Rain Light Rain
4:55 AM 46.4 °F 37.4 °F 44.6 °F 93% 30.18 in 0.0 mi WSW 28.8 mph - N/A Fog , Rain Light Rain
5:55 AM 46.4 °F 35.8 °F 44.6 °F 93% 30.15 in 0.0 mi WNW 40.3 mph - N/A Fog , Rain Light Rain
6:55 AM 44.6 °F 33.3 °F 41.0 °F 87% 30.15 in 0.0 mi NNE 40.3 mph - N/A Fog , Rain Light Rain
7:55 AM 44.6 °F 32.9 °F 41.0 °F 87% 30.15 in 0.0 mi NNE 43.7 mph - N/A Fog Fog
8:00 AM 45 °F - 42 °F 85%  in 0 mi NNE 43.7 mph - - Fog Heavy Fog
8:55 AM 44.6 °F 33.3 °F 41.0 °F 87% 30.21 in 0.0 mi NNE 40.3 mph - N/A Fog Fog
9:55 AM 44.6 °F 32.7 °F 42.8 °F 93% 30.21 in 0.0 mi NNE 46.0 mph - N/A Fog Fog
10:55 AM 42.8 °F 30.8 °F 41.0 °F 93% 30.18 in 0.0 mi NNE 40.3 mph - N/A Fog , Rain Light Rain
11:55 AM 42.8 °F 30.4 °F 39.2 °F 87% 30.21 in 0.0 mi NNE 43.7 mph - N/A Fog , Rain Light Rain
12:55 PM 42.8 °F 30.8 °F 39.2 °F 87% 30.21 in 0.0 mi NNE 40.3 mph - N/A Fog Fog
1:55 PM 42.8 °F 31.0 °F 39.2 °F 87% 30.24 in 0.0 mi North 39.1 mph - N/A Fog Fog
2:00 PM 42 °F - 39 °F 87%  in 0 mi North 39.1 mph - - Fog Heavy Fog
2:55 PM 42.8 °F 31.1 °F 39.2 °F 87% 30.24 in 0.0 mi North 38.0 mph - N/A Fog Fog
3:55 PM 42.8 °F 30.5 °F 39.2 °F 87% 30.24 in 0.0 mi NNE 42.6 mph - N/A Fog Fog
4:55 PM 42.8 °F 30.1 °F 39.2 °F 87% 30.21 in 0.0 mi NNE 46.0 mph - N/A Fog Fog
5:55 PM 42.8 °F 29.5 °F 39.2 °F 87% 30.18 in 0.2 mi North 51.8 mph - N/A Fog Fog
6:55 PM 42.8 °F 29.3 °F 39.2 °F 87% 30.18 in 0.1 mi NNE 54.1 mph - N/A Fog Fog
7:55 PM 42.8 °F 29.2 °F 39.2 °F 87% 30.18 in 0.0 mi NNE 55.2 mph - N/A Fog Fog
8:55 PM 42.8 °F 29.5 °F 41.0 °F 93% 30.18 in 0.0 mi NNE 51.8 mph - N/A Fog , Rain Light Rain
9:55 PM 42.8 °F 29.9 °F 39.2 °F 87% 30.24 in 0.0 mi NNE 48.3 mph - N/A Fog , Rain Light Rain
10:55 PM 41.0 °F 29.1 °F 39.2 °F 93% 30.27 in 0.0 mi NNE 34.5 mph - N/A Fog , Rain Light Rain
11:55 PM 41.0 °F 28.3 °F 39.2 °F 93% 30.24 in 0.0 mi NNE 40.3 mph - N/A Fog , Rain Light Rain